{"data":{"norad_id":58903,"intl_designator":"2024-022E","name":"LEMUR-2-CAEL","alt_names":[],"object_type":"PAYLOAD","status":"ACTIVE","operator":null,"country":"US","launch_date":"2024-01-31","launch_site_code":"RLLB","launch_vehicle":null,"mission":null,"orbit_class":"UNKNOWN","rcs_meters":null,"size_class":null,"mass_kg":null,"dimensions":null,"purposes":["earth_obs"],"wikipedia_slug":null,"has_3d_model":false,"image_url":null,"decayed_at":null,"tle_current":{"epoch":"2026-09-19T20:51:27.049248Z","epoch_age_seconds":69051,"freshness":"FRESH","line1":"1 58903U 24022E   26262.86906307  .00012491  00000+0  27789-3 0  9994","line2":"2 58903  97.3972 115.2488 0008629 109.0940 251.1243 15.43749770146939","mean_motion":15.4374977,"eccentricity":0.0008629,"inclination_deg":97.3972,"raan_deg":115.2488,"arg_perigee_deg":109.094,"mean_anomaly_deg":251.1243,"bstar":0.00027789,"rev_number":14693,"period_min":93.279366124213,"perigee_km":429.17500196334,"apogee_km":440.93320717161,"semimajor_km":6813.1911045675,"source":"CELESTRAK","updated_at":"2026-09-20T09:00:34.870632Z"}}}